Home > Weather > Lanchow > Past weeks

Flag for China Weather for the Past 2 Weeks in Lanchow, Gansu, China

Now
43 °F

Passing clouds.


Feels Like: 38 °F
Forecast: 10 / 46 °F
Wind: 8 mph from South

Location: Lanzhou / Zhongchuan

Current Time: Feb 8, 2016 at 3:00:21 PM

Latest Report: Feb 8, 2016 at 2:00 PM


Visibility: N/A

Pressure: 30.04 "Hg (24.91 "Hg at 1531m altitude)

Humidity: 11%

Dew point: -8 °F

Location of LanchowLocation

Historic Weather in Lanchow — Graph

°F

Lanchow Temperature Yesterday

Maximum temperature yesterday: 48 °F (at 4:00 PM)
Minimum temperature yesterday: 5 °F (at 6:00 AM)
Average temperature yesterday: 24 °F

High & Low Weather Summary for the Past Weeks

 TemperatureHumidityPressure
High48 °F (Feb 7, 4:00 PM)85% (Feb 4, 7:00 AM)30.57 "Hg (Feb 4, 7:00 AM)
Low-9 °F (Jan 25, 7:00 AM)11% (Feb 7, 4:00 PM)29.86 "Hg (Jan 27, 6:00 AM)
Average14 °F56%30.21 "Hg
* Reported Jan 24 1:00 PM — Feb 8 1:00 PM, Lanchow, Weather by CustomWeather, © 2016

Note: Actual official high and low records may vary slightly from our data, if they occured in-between our weather recording intervals... More about our weather records

Advertising

Lanchow Weather History for the Previous 24 Hours

 ConditionsComfort  
Time TempWeatherWind HumidityBarometerVisibility
1:00 PM
Mon, Feb 8
41 °FPassing clouds.6 mph13%30.09 "HgN/A
12:00 PM37 °FPassing clouds.6 mph17%30.12 "HgN/A
11:00 AM32 °FPassing clouds.3 mph25%30.12 "HgN/A
10:00 AM25 °FSunny.1 mph33%30.15 "Hg10 mi
9:00 AM14 °FClear.6 mph44%30.15 "Hg5 mi
8:00 AM9 °FClear.3 mph51%30.12 "Hg10 mi
7:00 AM7 °FClear.6 mph51%30.12 "Hg10 mi
6:00 AM14 °FPassing clouds.3 mph44%30.12 "HgN/A
5:00 AM16 °FClear.6 mph41%30.12 "Hg10 mi
4:00 AM14 °FClear.8 mph41%30.15 "Hg10 mi
3:00 AM16 °FClear.8 mph41%30.15 "Hg10 mi
2:00 AM18 °FClear.8 mph35%30.18 "Hg10 mi
1:00 AM19 °FClear.8 mph35%30.18 "Hg5 mi
12:00 AM21 °FClear.8 mph35%30.21 "Hg10 mi
11:00 PM
Sun, Feb 7
21 °FClear.8 mph35%30.21 "Hg4 mi
10:00 PM21 °FClear.8 mph35%30.21 "Hg4 mi
9:00 PM28 °FClear.1 mph31%30.18 "Hg5 mi
8:00 PM27 °FClear.6 mph31%30.18 "Hg5 mi
7:00 PM36 °FSunny.3 mph18%30.15 "Hg10 mi
6:00 PM45 °FSunny.6 mph13%30.15 "Hg10 mi
5:00 PM46 °FPassing clouds.6 mph11%30.12 "HgN/A
4:00 PM48 °FPassing clouds.6 mph11%30.15 "HgN/A
3:00 PM46 °FPassing clouds.6 mph12%30.18 "HgN/A
Weather by CustomWeather, © 2016

See weather overviewHow to use our weather pages